Visibility
15.0 15.0 15.0 15.0 15.0 15.0 15.0 15.0 15.0 15.0 15.0 15.0 15.0 15.0 15.0 15.0 15.0 15.0 15.0 15.0 15.0 15.0 15.0 15.0 15.0 15.0 15.0 15.0 15.0 15.0 15.0 15.0 15.0 15.0 15.0 15.0 15.0 15.0 15.0 15.0 15.0 15.0 15.0
15.0 15.0 15.0 15.0 15.0 15.0 15.0 15.0 15.0 15.0 15.0 15.0 15.0 15.0 15.0 15.0 15.0 15.0 15.0 15.0 15.0 15.0 15.0 15.0 15.0 15.0 15.0 15.0 15.0 15.0 15.0 15.0 15.0 15.0 15.0 15.0 15.0 15.0 15.0 15.0 15.0 15.0 15.0
15.0 15.0 15.0 15.0 15.0 15.0 15.0 15.0 15.0 15.0 15.0 15.0 15.0 15.0 15.0 15.0 15.0 15.0 15.0 15.0 15.0 15.0 15.0 15.0 15.0 15.0 15.0 15.0 15.0 15.0 15.0 15.0 15.0 15.0 15.0 15.0 15.0 15.0 15.0 15.0 15.0 15.0 15.0
15.0 15.0 15.0 15.0 15.0 15.0 15.0 15.0 15.0 15.0 15.0 15.0 15.0 15.0 15.0 15.0 15.0 15.0 15.0 15.0 15.0 15.0 15.0 15.0 15.0 15.0 15.0 15.0 15.0 15.0 15.0 15.0 15.0 14.3 8.7 15.0 15.0 15.0 15.0 15.0 15.0 15.0 15.0
15.0 15.0 15.0 15.0 15.0 15.0 15.0 15.0 15.0 15.0 15.0 15.0 15.0 15.0 15.0 15.0 15.0 15.0 15.0 15.0 15.0 15.0 15.0 15.0 15.0 15.0 10.0 9.1 8.0 6.5 9.6 10.2 11.5 0.1 0.1 0.5 0.4 15.0 15.0 15.0 15.0 15.0 15.0
15.0 15.0 15.0 15.0 15.0 15.0 15.0 15.0 15.0 15.0 15.0 15.0 15.0 15.0 15.0 15.0 15.0 15.0 15.0 15.0 15.0 15.0 14.9 15.0 15.0 11.5 15.0 15.0 9.6 7.2 6.0 4.4 3.4 6.2 0.7 0.2 15.0 15.0 15.0 15.0 15.0 15.0 15.0
15.0 15.0 15.0 15.0 15.0 15.0 15.0 15.0 15.0 15.0 15.0 15.0 15.0 15.0 15.0 15.0 15.0 15.0 15.0 15.0 15.0 14.6 15.0 15.0 13.3 15.0 9.0 15.0 11.2 15.0 15.0 15.0 15.0 12.4 15.0 15.0 15.0 15.0 15.0 15.0 15.0 15.0 15.0
15.0 15.0 15.0 15.0 15.0 15.0 15.0 15.0 15.0 15.0 15.0 15.0 15.0 15.0 15.0 15.0 15.0 15.0 15.0 15.0 15.0 15.0 15.0 15.0 15.0 11.9 15.0 15.0 15.0 15.0 15.0 15.0 15.0 15.0 15.0 15.0 15.0 15.0 14.7 15.0 15.0 15.0 15.0
15.0 15.0 15.0 15.0 15.0 15.0 15.0 15.0 15.0 15.0 15.0 15.0 15.0 15.0 15.0 15.0 15.0 15.0 15.0 15.0 14.4 15.0 14.7 15.0 12.9 15.0 15.0 15.0 15.0 15.0 15.0 15.0 14.7 15.0 15.0 10.5 11.0 7.9 3.4 5.9 4.7 5.1 0.9
15.0 15.0 15.0 15.0 15.0 15.0 15.0 15.0 15.0 15.0 15.0 15.0 15.0 15.0 15.0 15.0 15.0 15.0 15.0 14.2 10.0 14.7 15.0 15.0 15.0 15.0 15.0 15.0 15.0 14.8 3.6 14.2 15.0 15.0 15.0 15.0 15.0 13.6 14.1 15.0 15.0 0.3 0.3
15.0 15.0 15.0 15.0 15.0 15.0 15.0 15.0 15.0 15.0 15.0 15.0 15.0 15.0 15.0 15.0 15.0 13.7 10.5 15.0 15.0 15.0 14.7 15.0 15.0 15.0 15.0 5.7 6.9 15.0 15.0 15.0 15.0 15.0 15.0 15.0 15.0 15.0 15.0 3.4 15.0 15.0 15.0
15.0 15.0 15.0 15.0 15.0 15.0 15.0 15.0 15.0 15.0 15.0 15.0 15.0 15.0 15.0 15.0 15.0 15.0 11.1 11.7 10.8 15.0 15.0 15.0 15.0 15.0 13.1 15.0 15.0 10.4 1.0 9.8 4.8 11.0 15.0 15.0 15.0 15.0 15.0 10.7 6.0 7.0 13.2
15.0 15.0 15.0 15.0 15.0 15.0 15.0 15.0 15.0 15.0 15.0 15.0 14.0 3.7 15.0 15.0 15.0 15.0 14.9 14.7 7.0 12.3 13.9 14.0 13.7 11.5 15.0 15.0 15.0 5.1 0.9 12.9 14.8 15.0 15.0 15.0 15.0 15.0 15.0 15.0 15.0 15.0 15.0
15.0 15.0 15.0 15.0 15.0 15.0 15.0 15.0 15.0 15.0 15.0 0.1 0.0 4.8 0.0 13.8 8.8 15.0 13.9 10.4 14.2 13.9 15.0 15.0 13.1 15.0 15.0 15.0 15.0 15.0 15.0 15.0 15.0 15.0 15.0 15.0 15.0 15.0 15.0 15.0 3.0 4.1 15.0
15.0 15.0 15.0 15.0 15.0 15.0 15.0 15.0 15.0 15.0 4.4 1.9 9.0 1.5 0.1 0.0 9.5 1.8 6.2 12.7 15.0 9.3 8.0 15.0 15.0 15.0 15.0 15.0 15.0 15.0 15.0 15.0 15.0 15.0 15.0 15.0 15.0 15.0 15.0 15.0 15.0 15.0 0.5
15.0 15.0 15.0 15.0 15.0 15.0 15.0 15.0 15.0 15.0 11.5 6.6 15.0 10.3 9.8 3.8 1.4 3.2 2.4 14.7 15.0 15.0 6.1 14.4 13.1 15.0 15.0 15.0 15.0 15.0 15.0 15.0 15.0 15.0 15.0 1.6 0.9 15.0 14.8 15.0 15.0 15.0 10.9
15.0 15.0 15.0 15.0 15.0 15.0 15.0 15.0 15.0 15.0 15.0 14.7 3.8 15.0 4.1 3.0 14.8 1.9 2.7 15.0 15.0 5.5 0.3 15.0 15.0 8.7 6.9 15.0 15.0 15.0 15.0 15.0 15.0 15.0 13.1 0.1 14.6 15.0 9.5 15.0 14.2 11.5 13.5
15.0 15.0 15.0 15.0 15.0 15.0 15.0 15.0 15.0 0.0 12.5 7.0 15.0 15.0 15.0 12.6 1.5 15.0 15.0 15.0 15.0 11.5 0.1 0.0 0.4 15.0 15.0 8.8 15.0 15.0 15.0 15.0 15.0 15.0 14.5 5.4 9.9 7.8 5.9 3.3 1.7 0.7 0.1
15.0 15.0 15.0 15.0 15.0 15.0 15.0 15.0 9.8 15.0 13.8 14.0 15.0 15.0 15.0 14.2 11.1 15.0 11.5 6.8 0.0 0.0 0.0 0.0 0.0 0.0 11.9 15.0 15.0 15.0 15.0 15.0 15.0 1.0 0.0 3.1 15.0 8.1 4.0 3.8 3.7 0.7 0.1
15.0 15.0 15.0 15.0 15.0 15.0 15.0 9.7 15.0 10.5 11.7 13.5 8.9 15.0 5.9 0.0 15.0 15.0 15.0 0.1 0.0 0.0 0.0 0.0 0.0 0.0 0.0 8.9 15.0 15.0 15.0 15.0 1.6 0.0 0.0 13.0 8.8 4.8 7.5 3.2 14.9 15.0 2.2
15.0 15.0 15.0 15.0 15.0 15.0 0.1 0.1 15.0 12.3 8.0 3.5 15.0 15.0 2.3 0.5 15.0 8.0 0.0 0.0 0.0 0.0 0.0 0.0 0.0 0.0 0.1 0.1 9.5 15.0 15.0 15.0 15.0 0.0 0.0 15.0 15.0 15.0 15.0 3.5 5.8 7.3 12.4
15.0 15.0 15.0 15.0 15.0 14.3 9.0 15.0 15.0 12.8 8.9 5.1 10.4 15.0 6.0 15.0 6.3 0.1 0.0 0.0 0.0 0.0 0.0 0.0 0.0 0.0 10.6 0.1 0.1 14.9 15.0 15.0 15.0 0.0 2.0 15.0 15.0 15.0 15.0 15.0 4.4 3.4 8.3
15.0 15.0 15.0 15.0 15.0 12.8 15.0 15.0 8.0 15.0 11.6 15.0 15.0 10.0 11.2 13.3 8.9 0.0 0.0 0.0 0.0 0.0 0.0 0.0 0.0 0.0 0.3 12.2 15.0 15.0 15.0 15.0 15.0 9.1 15.0 15.0 15.0 15.0 15.0 15.0 13.8 15.0 14.3
15.0 15.0 15.0 15.0 15.0 15.0 15.0 14.8 9.7 5.0 4.6 15.0 10.4 8.1 0.2 0.1 0.0 0.0 0.0 0.0 0.0 0.0 0.0 0.0 0.0 0.0 0.0 3.3 15.0 15.0 15.0 15.0 15.0 15.0 15.0 15.0 15.0 15.0 15.0 15.0 15.0 15.0 15.0
15.0 15.0 15.0 15.0 14.8 10.6 13.8 15.0 6.8 14.0 12.5 7.7 14.6 1.3 5.7 6.4 11.9 3.2 0.0 0.0 0.0 0.0 0.0 0.0 0.0 0.0 0.0 0.0 14.9 15.0 15.0 15.0 15.0 15.0 15.0 15.0 15.0 15.0 15.0 15.0 15.0 15.0 15.0
15.0 15.0 15.0 15.0 15.0 14.0 2.4 6.9 6.6 6.3 5.3 15.0 0.2 5.8 7.8 15.0 4.6 0.1 0.0 0.0 0.0 0.0 0.0 0.0 0.0 0.0 0.0 0.0 0.0 15.0 15.0 15.0 15.0 15.0 15.0 15.0 15.0 15.0 15.0 15.0 15.0 15.0 15.0